Flag for Australia Weather past 2 weeks in Brisbane, Queensland, Australia

Now
73 °F

Passing clouds.


Feels Like: 72 °F
Forecast: 69 / 84 °F
Wind: 5 mph from Southwest

Location: Brisbane Airport M. O

Current Time: Mar 1, 2015 at 6:08:01 AM

Latest Report: Mar 1, 2015 at 5:00 AM


Visibility: N/A

Pressure: 29.80 "Hg

Humidity: 89%

Dew point: 70 °F

Location of BrisbaneLocation

Historic Weather in Brisbane — Graph

°F

Brisbane temperature yesterday

Maximum temperature yesterday: 82 °F (at 10:30 AM)
Minimum temperature yesterday: 73 °F (at 1:30 AM)
Average temperature yesterday: 78 °F

Past Weeks' High & Low Weather Summary

 TemperatureHumidityPressure
High84 °F (Feb 22, 1:00 PM)100% (Feb 20, 3:00 AM)30.15 "Hg (Feb 20, 3:00 AM)
Low66 °F (Feb 14, 5:00 AM)48% (Feb 14, 12:30 PM)29.62 "Hg (Feb 21, 1:00 PM)
Average76 °F77%29.88 "Hg
* Reported Feb 14 5:00 AM — Mar 1 5:00 AM, Brisbane, Weather by CustomWeather, © 2015

Note: Actual official high and low records may vary slightly from our data, if they occured in-between our weather recording intervals... More about our weather records

Advertising

Brisbane weather history for previous 24 hours

 ConditionsComfort  
Time TempWeatherWind HumidityBarometerVisibility
5:00 AM
Sun, Mar 1
73 °FPassing clouds.5 mph89%29.80 "HgN/A
4:00 AM73 °FScattered showers. Passing clouds.5 mph89%29.80 "HgN/A
3:30 AM73 °FScattered showers. Passing clouds.5 mph89%29.80 "HgN/A
3:00 AM73 °FPassing clouds.5 mph89%29.80 "HgN/A
2:30 AM73 °FPassing clouds.5 mph89%29.80 "HgN/A
2:00 AM73 °FPassing clouds.3 mph83%29.80 "HgN/A
1:30 AM73 °FPassing clouds.6 mph83%29.83 "HgN/A
1:00 AM75 °FPassing clouds.6 mph78%29.83 "HgN/A
12:30 AM75 °FPassing clouds.6 mph83%29.83 "HgN/A
12:00 AM77 °FPassing clouds.7 mph74%29.83 "HgN/A
11:30 PM
Sat, Feb 28
77 °FPassing clouds.8 mph74%29.86 "HgN/A
11:00 PM77 °FPassing clouds.7 mph79%29.86 "HgN/A
10:00 PM77 °FPassing clouds.5 mph74%29.86 "HgN/A
9:00 PM77 °FPassing clouds.7 mph74%29.86 "HgN/A
8:30 PM77 °FPassing clouds.8 mph74%29.86 "HgN/A
8:00 PM79 °FPassing clouds.8 mph70%29.86 "HgN/A
7:30 PM77 °FPassing clouds.9 mph74%29.83 "HgN/A
7:00 PM77 °FPassing clouds.10 mph74%29.83 "HgN/A
6:30 PM79 °FPartly cloudy.9 mph70%29.80 "HgN/A
6:00 PM79 °FPartly cloudy.10 mph70%29.80 "HgN/A
5:30 PM79 °FPartly cloudy.12 mph74%29.80 "HgN/A
5:00 PM81 °FScattered clouds.13 mph70%29.77 "HgN/A
4:30 PM81 °FScattered clouds.14 mph70%29.77 "HgN/A
4:00 PM79 °FScattered clouds.13 mph70%29.80 "HgN/A
3:30 PM81 °FScattered clouds.15 mph70%29.77 "HgN/A
3:00 PM81 °FPassing clouds.14 mph66%29.77 "HgN/A
2:30 PM82 °FPassing clouds.13 mph70%29.80 "HgN/A
2:00 PM82 °FScattered clouds.13 mph70%29.80 "HgN/A
1:00 PM82 °FScattered clouds.13 mph66%29.80 "HgN/A
12:30 PM81 °FScattered clouds.12 mph70%29.83 "HgN/A
12:00 PM81 °FScattered clouds.10 mph70%29.83 "HgN/A
11:30 AM82 °FScattered clouds.9 mph66%29.83 "HgN/A
11:00 AM82 °FScattered showers. Scattered clouds.9 mph70%29.83 "HgN/A
10:30 AM82 °FScattered showers. Scattered clouds.7 mph66%29.83 "HgN/A
10:00 AM81 °FScattered clouds.6 mph70%29.86 "HgN/A
9:30 AM81 °FScattered clouds.3 mph74%29.86 "HgN/A
9:00 AM79 °FScattered clouds.No wind74%29.86 "HgN/A
8:30 AM79 °FScattered clouds.No wind74%29.86 "HgN/A
8:00 AM79 °FScattered clouds.6 mph74%29.83 "HgN/A
7:00 AM77 °FScattered showers. Scattered clouds.No wind79%29.83 "HgN/A
6:30 AM75 °FScattered clouds.1 mph83%29.83 "HgN/A
6:00 AM75 °FSprinkles. Partly sunny.3 mph83%29.80 "HgN/A
Weather by CustomWeather, © 2015

See weather overviewHow to use our weather pages